Tracking 30923 objects as of 1-Jul-2025
HD Live streaming from Space Station
objects crossing your sky now

STARLINK-31431

Track STARLINK-31431 now!
10-day predictions
STARLINK-31431 is classified as:


NORAD ID: 59002
Int'l Code: 2024-036E
Perigee: 481.6 km
Apogee: 483.1 km
Inclination: 53.2 °
Period: 94.1 minutes
Semi major axis: 6853 km
RCS: Unknown
Launch date: February 23, 2024
Source: United States (US)
Launch site: AIR FORCE WESTERN TEST RANGE (AFWTR)
Your satellite tracking list
STARLINK-3919
Track 1 satellite(s)




NASA's NSSDC Master Catalog

Two Line Element Set (TLE):
1 59002U 24036E   25181.66268977 -.00000044  00000-0  10627-4 0  9998
2 59002  53.1590 168.9961 0001128  87.0694 273.0435 15.30192506 76736
Source of the keplerian elements: AFSPC